User: anonymous   Login
Location: Unspecified
(0.0000°N, 0.0000°E)
Time: 19:19:34
(UTC+01:00)
Language:

Cosmos 2251 - Orbit

View from above orbital plane
View from above orbital plane
View from above satellite
View from above satellite

Ground track
Ground track

The orbit data is extracted from the following two-line orbital elements,

1 22675U 93036A   14330.85172581  .00000151  00000-0  65226-4 0  4123
2 22675 074.0392 119.3280 0023929 105.5117 003.9857 14.32368078120397
Epoch (UTC): 26 November 2014 20:26:29
Eccentricity: 0.0023929
inclination: 74.0392°
perigee height: 766 km
apogee height: 801 km
right ascension of ascending node: 119.3280°
argument of perigee: 105.5117°
revolutions per day: 14.32368078
mean anomaly at epoch: 3.9857°
orbit number at epoch: 12039

The dashed part of the orbit path shows where the satellite is in the earth's shadow,  

DLR